Location: Proctor
(47.8934°N, 114.3048°W)
Time: 11:01:48
(UTC+00:00)

Transit 4A - Pass Details

Date: 04 July 2024
Orbit: 870 x 973 km, 66.8° (Epoch: 13 July)

Event Time Altitude Azimuth Distance (km) Brightness Sun altitude
Rises 10:20:19 0° 327° (NNW) 3,492 11.2 -10.9°
Reaches altitude 10° 10:23:04 10° 337° (NNW) 2,562 10.6 -10.6°
Maximum altitude 10:28:22 32° 40° (NE) 1,498 9.9 -10.0°
Drops below altitude 10° 10:33:44 10° 103° (ESE) 2,612 10.6 -9.5°
Sets 10:36:34 0° 113° (ESE) 3,569 11.2 -9.2°
